Dewpoint
-12 -10 -9 -9 -8 -7 -7 -8 -8 -4 -5 -6 -8 -11 -12 -11 -8 -3 -4 -6 -5 -5 -2 -11 -15 -7 -3 0 0 2 3 3 4 4 4 5 6 6
-12 -11 -9 -10 -9 -10 -11 -12 -10 -8 -7 -8 -9 -8 -8 -6 -5 -6 -7 -6 -4 -3 -4 -9 1 -1 -5 -4 -2 -1 2 4 4 4 5 3 4 5
-12 -12 -11 -10 -10 -11 -12 -11 -10 -10 -8 -8 -7 -8 -9 -9 -8 -8 -7 -7 -6 -7 -5 -1 -2 -10 -13 -13 -8 -2 1 5 5 6 5 5 6 5
-13 -12 -12 -12 -11 -11 -11 -11 -10 -9 -8 -7 -8 -8 -8 -8 -7 -7 -8 -8 -8 -7 -7 -6 -4 -7 -6 -10 -2 -3 -1 3 4 5 4 5 6 7
-12 -11 -11 -11 -11 -11 -11 -10 -9 -9 -8 -8 -7 -7 -7 -7 -7 -8 -7 -8 -8 -7 -6 -6 -4 -2 -3 -0 -2 -1 -0 1 3 4 3 4 4 7
-11 -10 -10 -10 -11 -10 -10 -10 -9 -8 -8 -8 -7 -7 -7 -9 -8 -8 -8 -7 -6 -6 -6 -3 -3 -2 -3 -3 -2 -3 -0 2 2 2 3 4 5 5
-10 -10 -10 -10 -9 -9 -9 -8 -8 -9 -7 -6 -7 -8 -9 -9 -8 -8 -8 -8 -8 -7 -4 -4 -4 -3 -5 -9 -11 -10 -4 -1 2 3 4 3 2 2
-10 -10 -11 -11 -10 -9 -8 -7 -8 -7 -7 -6 -7 -8 -9 -9 -9 -9 -7 -6 -6 -7 -5 -5 -8 -6 -5 -5 -4 -2 -2 -1 -1 -0 0 2 1 -1
-10 -11 -11 -11 -9 -8 -9 -9 -8 -7 -8 -8 -8 -10 -9 -9 -9 -7 -7 -6 -6 -6 -6 -7 -6 -5 -6 -6 -3 -6 -1 -1 0 1 1 -1 -2 -1
-11 -11 -11 -9 -8 -10 -9 -8 -7 -9 -10 -11 -10 -9 -8 -8 -8 -8 -8 -8 -7 -7 -5 -5 -6 -6 -7 -5 -3 -2 -2 -0 -0 -2 -1 -0 1 2
-11 -10 -8 -8 -9 -9 -8 -8 -9 -10 -12 -10 -9 -9 -10 -9 -8 -8 -8 -7 -7 -6 -7 -6 -7 -6 -5 -7 -7 -5 -2 -2 -1 -0 0 1 1 1
-10 -9 -9 -10 -9 -7 -9 -10 -9 -12 -9 -10 -10 -11 -9 -9 -8 -9 -9 -8 -8 -7 -8 -6 -8 -7 -6 -5 -3 -4 -3 -1 1 2 2 2 2 4
-9 -9 -10 -8 -8 -11 -11 -10 -10 -10 -10 -11 -11 -11 -11 -10 -10 -10 -10 -9 -9 -8 -9 -7 -8 -8 -7 -7 -8 -7 -5 -1 1 3 3 3 3 4
-9 -9 -8 -9 -11 -12 -11 -11 -11 -11 -12 -12 -11 -11 -10 -11 -11 -11 -10 -10 -9 -9 -9 -8 -8 -8 -8 -8 -8 -8 -5 -2 -0 1 1 1 2 2
-10 -9 -10 -12 -12 -12 -11 -12 -12 -12 -12 -11 -11 -11 -11 -11 -11 -11 -10 -10 -9 -9 -8 -8 -9 -9 -9 -9 -8 -7 -6 -3 -2 -0 -1 -1 -1 -0
-9 -10 -12 -13 -13 -12 -12 -13 -13 -12 -11 -11 -11 -12 -12 -11 -10 -10 -10 -9 -8 -9 -8 -9 -9 -10 -9 -9 -8 -6 -6 -4 -3 -2 -1 -2 -1 -0
-9 -12 -13 -13 -12 -13 -13 -13 -13 -12 -12 -12 -12 -12 -12 -11 -11 -10 -9 -9 -9 -9 -9 -9 -9 -10 -9 -8 -7 -7 -6 -4 -3 -3 -2 -3 -3 -2
-12 -13 -13 -12 -12 -12 -12 -13 -13 -12 -12 -12 -12 -12 -11 -11 -10 -10 -9 -9 -9 -10 -10 -10 -9 -9 -9 -9 -8 -7 -6 -5 -4 -3 -3 -4 -4 -3
-12 -12 -12 -12 -13 -13 -13 -13 -12 -12 -12 -12 -12 -12 -11 -11 -10 -9 -9 -9 -9 -10 -11 -10 -12 -9 -8 -9 -9 -7 -6 -5 -4 -4 -4 -5 -5 -5
-13 -13 -13 -13 -13 -13 -13 -13 -13 -13 -12 -12 -12 -11 -11 -10 -10 -9 -9 -9 -10 -12 -15 -12 -15 -9 -8 -9 -10 -8 -7 -6 -5 -5 -5 -5 -5 -5
-13 -13 -13 -13 -13 -13 -13 -13 -13 -13 -12 -12 -12 -11 -10 -10 -10 -12 -14 -13 -13 -18 -15 -11 -13 -13 -12 -12 -10 -8 -7 -6 -5 -5 -6 -6 -6 -6
-13 -13 -13 -13 -13 -13 -13 -13 -13 -12 -12 -11 -10 -10 -10 -10 -10 -16 -19 -15 -10 -9 -11 -8 -9 -13 -12 -12 -11 -12 -15 -17 -15 -12 -13 -12 -11 -11
-13 -13 -13 -13 -13 -13 -13 -13 -12 -11 -10 -10 -10 -9 -10 -11 -15 -19 -12 -9 -9 -9 -8 -8 -8 -11 -11 -10 -10 -11 -12 -12 -12 -12 -10 -11 -12 -11
Wind_Speed
24 22 24 26 25 26 27 31 33 36 38 43 41 40 39 41 39 36 39 48 42 46 41 43 43 43 43 41 42 40 39 41 40 41 43 35 44 37
23 25 25 26 27 27 28 31 31 32 36 40 43 40 42 39 39 41 43 42 41 40 43 32 34 39 42 43 43 44 39 37 35 37 38 37 42 36
24 25 26 27 28 29 30 30 30 31 33 44 37 45 44 43 43 42 39 41 42 45 40 37 41 37 34 38 43 43 39 35 31 30 31 33 36 38
27 27 28 28 29 29 29 30 32 33 34 38 42 44 43 43 42 43 43 41 43 42 41 38 37 35 33 34 41 42 40 36 30 28 26 31 33 35
27 28 29 29 30 29 30 33 33 34 35 39 43 41 42 42 43 43 43 43 40 38 36 35 32 34 36 33 34 41 41 37 35 33 28 29 31 33
28 27 28 28 28 30 32 31 34 36 39 38 39 41 41 46 41 41 42 41 43 39 41 31 36 31 33 33 32 35 34 32 37 36 31 27 27 33
27 27 27 27 28 28 31 34 36 40 40 40 40 39 44 42 41 41 42 44 47 46 38 30 33 32 38 40 41 40 39 36 31 32 35 37 34 32
28 29 28 28 27 31 31 33 34 38 43 39 37 40 44 42 43 43 42 43 42 37 32 41 45 42 41 41 37 32 35 35 34 36 38 38 42 39
27 29 30 28 31 32 37 35 39 36 31 38 41 43 45 43 44 47 43 42 45 45 41 46 38 37 40 38 37 36 32 31 32 33 35 37 38 43
26 28 29 31 31 35 39 45 31 33 37 41 40 40 42 44 43 44 45 48 45 40 29 37 37 40 39 36 27 25 32 32 39 40 36 35 35 39
27 27 30 33 33 37 39 35 38 43 44 34 39 38 40 37 32 36 40 37 38 36 30 35 34 34 31 41 31 23 26 29 32 30 29 31 31 33
30 31 31 33 35 36 43 41 38 43 43 45 41 36 30 31 29 30 37 38 36 39 27 30 36 31 23 17 17 22 23 22 15 16 15 18 23 24
36 37 36 35 35 43 42 37 35 41 42 38 37 37 35 35 34 36 35 35 38 39 35 31 33 31 27 31 33 28 24 10 12 12 13 9 14 21
36 37 36 38 43 40 33 32 36 34 35 36 38 38 39 38 38 37 34 32 31 35 35 30 31 27 25 28 28 24 20 8 16 14 18 21 23 31
35 34 39 42 38 31 31 31 32 32 34 37 38 39 40 39 40 38 34 31 31 30 27 21 22 23 24 26 25 17 16 2 19 17 22 24 33 38
35 37 40 34 31 30 31 34 32 32 32 37 39 41 40 40 40 37 35 31 30 25 20 17 15 14 19 18 15 15 13 5 16 20 21 18 19 21
39 40 33 32 33 34 35 34 35 35 37 38 39 40 41 40 37 32 31 28 21 18 14 12 7 5 7 8 8 10 10 12 21 20 20 25 25 28
35 30 32 32 34 35 36 38 38 37 39 41 39 39 38 36 34 32 25 18 14 12 12 10 8 3 3 8 6 9 15 22 26 26 27 31 29 27
28 29 31 33 35 36 37 38 40 41 41 38 38 37 32 30 28 25 20 15 13 15 16 14 11 8 9 9 13 15 24 26 28 29 28 27 27 22
28 30 32 34 35 36 37 39 41 41 38 37 36 31 28 27 24 21 17 17 14 13 13 15 13 11 12 10 15 16 22 26 28 27 27 27 27 27
30 32 34 35 36 36 36 40 40 38 36 35 32 29 25 24 19 16 15 12 12 12 13 13 12 12 16 17 19 17 15 17 19 20 20 20 21 20
32 34 34 34 34 36 40 40 39 37 34 32 29 25 21 19 17 17 15 14 12 11 9 9 8 8 10 13 17 19 19 17 16 16 16 16 14 10
32 32 34 34 36 39 40 38 35 32 32 30 27 24 20 19 18 16 15 12 11 9 7 7 9 10 13 15 16 17 18 17 16 14 10 10 11 10
Wind_Direction
318 313 307 307 304 302 299 300 299 299 301 301 304 302 302 300 298 295 298 302 295 290 297 295 289 289 284 282 284 282 278 280 274 270 274 276 272 268
313 310 306 306 302 301 301 300 295 294 295 295 299 303 303 303 297 297 298 300 300 295 299 300 286 279 281 280 280 282 284 283 276 273 273 275 273 269
311 309 305 305 302 302 301 299 296 297 298 294 297 300 302 302 300 299 298 297 296 296 299 293 286 289 286 280 281 282 280 280 276 269 266 261 261 260
310 308 306 306 301 301 301 300 300 299 297 298 300 301 302 304 304 304 303 298 297 294 294 293 289 288 287 278 277 280 277 273 271 271 273 261 258 251
309 308 306 305 304 304 303 303 302 301 301 300 299 302 305 306 307 304 303 303 298 299 297 290 288 286 283 276 281 280 277 268 264 262 266 259 258 254
308 306 306 306 305 305 306 304 303 303 303 301 302 305 309 308 305 303 304 303 302 299 302 292 294 292 292 286 282 284 276 271 264 259 254 259 251 253
308 309 308 306 306 306 305 304 305 304 302 303 303 308 310 307 305 304 305 303 302 303 298 300 304 296 288 297 290 289 278 278 270 258 252 252 257 256
312 312 311 312 310 308 307 304 303 303 306 302 306 307 305 302 302 301 301 303 302 303 306 302 302 298 295 292 288 275 271 273 274 269 263 256 252 257
313 313 314 312 311 311 311 307 304 306 303 306 304 302 298 298 300 302 302 299 294 296 301 295 299 294 298 296 290 279 267 261 266 265 263 257 253 252
315 313 312 312 312 314 312 307 308 306 308 307 300 298 299 301 299 296 296 295 296 297 295 288 302 295 297 293 293 293 278 272 269 270 262 254 252 247
316 313 312 314 314 314 315 318 313 312 315 309 305 302 298 299 297 298 300 299 300 293 296 292 300 299 296 294 296 278 281 275 271 268 259 252 250 248
317 315 316 315 313 317 319 318 315 316 316 315 310 310 308 307 304 302 302 301 298 299 300 291 304 300 304 295 276 301 303 297 273 247 251 248 241 236
317 317 317 316 319 316 314 310 311 313 313 311 312 317 319 315 311 310 306 301 296 291 299 293 299 292 284 289 297 303 303 314 109 192 195 214 207 206
316 315 315 319 318 317 315 315 315 314 314 318 317 315 315 317 316 314 311 306 298 293 304 296 290 284 283 287 291 294 300 296 147 171 163 154 156 153
315 317 318 318 319 320 319 319 320 320 318 316 314 314 317 320 321 319 317 313 310 307 303 296 284 282 281 278 278 282 298 195 149 174 156 138 134 136
320 324 320 319 320 319 322 323 324 322 318 315 315 318 323 322 318 321 318 319 314 313 311 306 295 293 292 277 263 259 269 203 142 151 148 140 145 151
322 322 321 321 323 327 326 325 326 326 321 320 321 324 323 321 322 325 324 323 322 323 325 318 319 21 346 248 240 229 237 174 149 147 140 132 134 141
322 321 320 324 324 324 324 324 326 324 322 325 326 325 321 326 328 336 340 338 339 348 350 345 338 281 24 78 156 168 160 151 147 145 138 132 128 123
323 321 323 323 323 323 323 323 321 324 327 327 328 326 331 337 345 349 359 7 10 13 11 11 13 53 81 73 91 136 138 136 141 141 137 137 132 131
325 324 323 323 323 324 324 323 324 325 327 328 330 339 343 344 347 353 3 8 359 353 9 24 39 72 94 74 88 97 127 129 133 132 136 138 138 142
325 324 325 325 325 324 323 325 325 325 325 334 340 343 350 352 346 354 357 358 358 8 15 28 47 85 101 104 101 102 110 127 137 139 133 137 138 139
325 326 327 326 325 325 328 328 329 334 339 343 345 347 350 347 340 345 350 353 356 2 13 33 58 98 108 119 109 109 112 113 125 141 147 161 152 155
327 329 328 327 330 335 334 332 336 339 344 345 346 346 348 338 341 344 342 352 2 8 30 60 82 105 108 112 115 115 118 117 120 123 121 148 163 163
Height
1427 1422 1418 1412 1407 1401 1395 1389 1382 1367 1356 1347 1345 1344 1340 1334 1329 1322 1316 1310 1305 1299 1296 1292 1290 1286 1281 1277 1276 1276 1272 1268 1270 1271 1271 1274 1276 1271
1421 1416 1411 1406 1400 1394 1388 1382 1376 1368 1356 1347 1339 1335 1329 1325 1320 1314 1309 1303 1296 1290 1285 1282 1280 1275 1271 1267 1264 1262 1260 1258 1256 1258 1261 1259 1265 1267
1415 1409 1404 1398 1392 1387 1381 1375 1368 1363 1353 1340 1336 1327 1322 1316 1310 1306 1300 1294 1287 1281 1276 1272 1267 1264 1261 1257 1254 1253 1251 1252 1251 1250 1250 1249 1253 1257
1407 1402 1396 1390 1385 1379 1373 1367 1361 1355 1348 1337 1329 1322 1315 1309 1303 1297 1291 1285 1279 1273 1267 1262 1257 1254 1250 1248 1245 1240 1243 1244 1242 1240 1237 1241 1245 1247
1401 1394 1389 1383 1377 1371 1366 1360 1354 1347 1341 1333 1321 1316 1308 1301 1294 1288 1282 1277 1271 1264 1258 1253 1250 1246 1242 1239 1237 1235 1233 1232 1232 1234 1235 1237 1236 1239
1393 1388 1382 1377 1370 1364 1359 1353 1347 1340 1333 1325 1316 1308 1302 1293 1288 1279 1270 1266 1260 1255 1249 1244 1240 1236 1232 1230 1227 1224 1222 1222 1222 1225 1226 1225 1224 1230
1386 1380 1375 1370 1364 1359 1353 1347 1341 1333 1326 1318 1309 1302 1294 1287 1280 1272 1265 1257 1250 1246 1239 1234 1231 1227 1223 1220 1216 1214 1214 1214 1214 1214 1215 1215 1215 1216
1378 1373 1368 1363 1357 1352 1346 1341 1336 1327 1319 1312 1303 1297 1287 1282 1274 1267 1259 1251 1241 1236 1233 1225 1222 1216 1212 1209 1206 1204 1204 1204 1204 1204 1203 1203 1204 1204
1373 1367 1362 1357 1351 1345 1338 1333 1326 1320 1316 1309 1299 1291 1280 1274 1267 1258 1251 1245 1235 1229 1227 1215 1214 1207 1203 1199 1197 1192 1192 1192 1191 1191 1190 1190 1193 1195
1368 1363 1357 1351 1345 1339 1331 1322 1316 1312 1307 1300 1291 1282 1274 1266 1261 1253 1244 1234 1227 1223 1222 1208 1207 1200 1196 1190 1186 1184 1181 1179 1179 1178 1177 1179 1180 1184
1363 1358 1352 1345 1339 1333 1323 1315 1308 1301 1295 1289 1282 1274 1265 1258 1252 1245 1236 1229 1219 1215 1213 1207 1200 1193 1189 1182 1178 1175 1173 1170 1167 1166 1165 1167 1169 1172
1357 1352 1346 1340 1333 1326 1319 1310 1299 1292 1284 1275 1269 1262 1256 1249 1244 1239 1231 1222 1215 1205 1206 1201 1194 1190 1181 1177 1171 1168 1165 1162 1158 1157 1157 1159 1160 1162
1350 1344 1339 1333 1326 1320 1313 1304 1296 1287 1277 1270 1261 1253 1247 1241 1236 1230 1224 1217 1208 1199 1198 1196 1188 1185 1181 1173 1169 1167 1163 1157 1154 1153 1154 1157 1159 1158
1346 1339 1332 1326 1319 1311 1304 1297 1289 1281 1273 1264 1256 1248 1240 1233 1227 1220 1213 1207 1201 1193 1189 1187 1181 1179 1175 1171 1167 1163 1161 1158 1155 1154 1155 1158 1159 1160
1342 1333 1327 1319 1312 1304 1298 1291 1283 1275 1268 1259 1251 1243 1235 1227 1219 1211 1205 1198 1191 1185 1181 1178 1175 1173 1171 1167 1165 1163 1162 1161 1156 1157 1159 1161 1162 1163
1335 1326 1321 1314 1307 1300 1292 1285 1278 1271 1264 1255 1246 1237 1229 1220 1212 1205 1197 1190 1184 1179 1176 1173 1170 1167 1164 1161 1162 1162 1162 1162 1160 1159 1161 1165 1168 1170
1329 1321 1314 1308 1301 1294 1287 1280 1273 1266 1258 1250 1241 1232 1223 1215 1207 1199 1192 1186 1181 1176 1173 1170 1167 1165 1161 1158 1159 1161 1162 1163 1164 1165 1168 1171 1176 1180
1324 1318 1311 1305 1297 1290 1282 1274 1268 1260 1253 1245 1236 1228 1220 1211 1202 1195 1189 1184 1180 1176 1172 1168 1166 1164 1162 1159 1159 1160 1163 1165 1168 1171 1175 1178 1184 1190
1322 1315 1308 1301 1294 1287 1280 1272 1263 1255 1248 1240 1232 1225 1216 1209 1201 1196 1190 1185 1182 1178 1174 1170 1166 1164 1164 1163 1163 1164 1166 1169 1171 1175 1180 1184 1188 1194
1318 1311 1304 1297 1291 1283 1275 1267 1258 1250 1243 1236 1229 1221 1214 1208 1202 1197 1193 1189 1185 1181 1178 1174 1170 1168 1167 1168 1168 1171 1173 1175 1177 1181 1186 1190 1195 1201
1314 1307 1301 1294 1287 1279 1271 1262 1254 1246 1240 1232 1225 1219 1213 1208 1205 1200 1195 1191 1188 1184 1181 1178 1176 1174 1174 1174 1175 1177 1179 1181 1184 1188 1192 1196 1201 1206
1310 1304 1297 1290 1282 1273 1265 1257 1249 1242 1235 1229 1223 1218 1213 1209 1205 1200 1196 1192 1189 1186 1184 1182 1180 1179 1179 1179 1180 1182 1185 1187 1190 1194 1196 1199 1203 1207
1306 1300 1293 1285 1277 1268 1261 1254 1246 1239 1233 1228 1222 1217 1213 1209 1204 1200 1196 1193 1190 1188 1186 1185 1183 1183 1183 1184 1186 1188 1191 1193 1196 1199 1201 1204 1207 1210